[[{"header":{"parameterUnit":"m.s-1","parameterCategory":1,"la1":30.2991,"la2":30.254,"lo1":-89.0895,"lo2":-89.0444,"dy":0.0017,"dx":0.0017,"nx":28,"ny":28,"refTime":"2025-04-05T21:00:00:Z","depth":0,"parameterNumber":2,"parameterNumberName":"U-component_of_WINDS"},"data":[0,0,0,0,0,0,0,0,0,0,0,0,0,0,0,0,0,0,0,0,0,0,0,0,0,0,0,0,0,0,0,0,0,0,0,0,0,0,0,0,0,0,0,0,0,0,0,0,0,0,0,0,0,0,0,0,0,0,0.4777,0.4777,0,0.4799,0.48,0.48,0.4792,0.4792,0.4791,0.4791,0.4815,0.4816,0.4818,0,0,0,0,0,0,0,0,0,0,0,0,0,0.4729,0.4729,0.4777,0.4777,0.4777,0.4799,0.48,0.48,0.4792,0.4792,0.4791,0.4791,0.4815,0.4816,0.4818,0,0,0,0,0,0,0,0,0,0,0,0,0,0.475,0.473,0.4777,0.4776,0.4776,0.4799,0.48,0.48,0.4792,0.4792,0.4791,0.479,0.4815,0.4816,0.4818,0.4843,0,0,0.4823,0.4824,0,0,0,0,0,0,0,0,0.4749,0.4752,0.4776,0.4776,0.4776,0.4792,0.4792,0.4814,0.4793,0.4786,0.4791,0.479,0.4808,0.481,0.4816,0.4844,0.4845,0.4823,0.4824,0.4825,0.4825,0,0,0,0,0,0,0,0.4747,0.4751,0.4786,0.4776,0.4777,0.4775,0.4777,0.4796,0.4801,0.4787,0.4786,0.4789,0.4808,0.4815,0.4817,0.4846,0.4823,0.4825,0.4826,0.4826,0.4896,0.4897,0,0,0,0,0,0,0.4746,0.475,0.4785,0.4786,0.4761,0.4777,0.4779,0.4788,0.4801,0.4802,0.479,0.4789,0.4812,0.4815,0.4818,0.4848,0.4825,0.4826,0.4827,0.4895,0.4896,0.4897,0,0,0,0,0,0,0.4745,0.4749,0.4784,0.4768,0.4772,0.4778,0.4788,0.4789,0.4795,0.4803,0.4804,0.4795,0.4812,0.4815,0.4837,0.4849,0.4827,0.4829,0.4894,0.4895,0.4896,0.4909,0,0,0,0,0,0,0.4743,0.4748,0.4758,0.4768,0.4773,0.4802,0.4789,0.479,0.4798,0.4797,0.4809,0.481,0.4812,0.4834,0.4838,0.4851,0.483,0.4893,0.4894,0.4896,0.4908,0.4911,0.4913,0,0,0,0,0,0.4742,0.4761,0.4758,0.4763,0.4785,0.4803,0.4806,0.4807,0.4799,0.4808,0.4814,0.4809,0.4847,0.4837,0.4841,0.4854,0.4892,0.4894,0.4896,0.4906,0.491,0.4913,0,0,0,0,0,0,0.4752,0.4762,0.4759,0.4782,0.4792,0.4802,0.4814,0.4811,0.4823,0.4821,0.4823,0.4826,0.4848,0.4853,0.4841,0.488,0.4868,0.4871,0.4875,0.4879,0.4881,0.4879,0.4831,0,0,0,0,0,0.4757,0.477,0.4779,0.4798,0.4803,0.4808,0.4816,0.4816,0.4825,0.483,0.4836,0.4847,0.4861,0.487,0.4883,0.4909,0.4911,0.492,0.4923,0.4925,0.4927,0.4942,0.4946,0.4903,0.4903,0.4903,0,0,0.4767,0.4774,0.4783,0.48,0.4808,0.4822,0.4811,0.4827,0.4837,0.4832,0.4852,0.4858,0.487,0.4893,0.4904,0.4898,0.494,0.4928,0.4929,0.493,0.4944,0.4948,0.4951,0.4904,0.4904,0.4904,0,0,0.4793,0.48,0.4817,0.4825,0.4836,0.4839,0.4843,0.4853,0.4856,0.4877,0.4873,0.4886,0.4911,0.4919,0.4927,0.4956,0.4953,0.4961,0.4975,0.4989,0.4992,0.4995,0.5006,0.501,0.4963,0.4963,0.4963,0,0.4805,0.4826,0.4826,0.4842,0.485,0.4846,0.4863,0.4871,0.4886,0.4892,0.4885,0.4916,0.4923,0.4949,0.4956,0.4962,0.4967,0.4959,0.4992,0.4995,0.4998,0.5008,0.5012,0.4964,0.4964,0.4964,0.4964,0,0.4839,0.4854,0.4866,0.4881,0.489,0.4907,0.491,0.492,0.4919,0.4923,0.4944,0.4953,0.4969,0.4975,0.4975,0.5,0.4997,0.4991,0.498,0.5003,0.5012,0.5016,0.4965,0.4965,0.4965,0.4965,0,0,0.4872,0.4886,0.4891,0.4897,0.4909,0.4921,0.4938,0.4952,0.4961,0.4972,0.4986,0.5007,0.5002,0.501,0.5011,0.5023,0.5046,0.5016,0.5016,0.5021,0.5076,0.5079,0.5084,0.5044,0.5045,0.5046,0.5075,0,0.4898,0.4927,0.4928,0.4955,0.4968,0.4965,0.498,0.4989,0.4993,0.5006,0.5011,0.5026,0.5018,0.5023,0.5035,0.5041,0.5057,0.5039,0.5058,0.5059,0.5055,0.5089,0.5093,0.512,0.5078,0.5079,0.5079,0,0.4933,0.4945,0.4972,0.4983,0.4989,0.5002,0.5015,0.5027,0.5038,0.5041,0.505,0.505,0.5067,0.5056,0.5081,0.5068,0.5076,0.5081,0.5082,0.5083,0.507,0.5091,0.5128,0.5132,0.5085,0.5085,0.5084,0,0.4954,0.4976,0.4996,0.5001,0.5014,0.5023,0.5029,0.5039,0.5048,0.5061,0.5066,0.5081,0.5089,0.51,0.5104,0.5095,0.5128,0.5117,0.5131,0.5131,0.5138,0.5137,0.5176,0.5144,0.5144,0.5144,0.5144,0,0.4983,0.5,0.5005,0.5017,0.5036,0.5038,0.5057,0.5062,0.5072,0.5085,0.5083,0.5096,0.51,0.5114,0.5117,0.5137,0.5141,0.5143,0.5144,0.5143,0.5143,0.5148,0.5146,0.5145,0.5144,0.5144,0.5144,0,0.5009,0.5013,0.5034,0.5044,0.5047,0.5061,0.507,0.5082,0.5086,0.5103,0.5108,0.5115,0.5131,0.5135,0.5155,0.5157,0.5181,0.518,0.5177,0.5176,0.519,0.5189,0.5234,0.524,0.5203,0.5204,0.5204,0,0.5027,0.504,0.5052,0.506,0.5067,0.5081,0.5089,0.5092,0.5102,0.5116,0.5126,0.5142,0.5154,0.518,0.5187,0.5202,0.5202,0.5217,0.5204,0.5203,0.5202,0.5201,0.5202,0.5219,0.5219,0.5219,0.522,0,0.5059,0.506,0.5073,0.5086,0.5097,0.5108,0.5118,0.5126,0.513,0.5141,0.5157,0.5167,0.5187,0.5203,0.5218,0.5225,0.5223,0.5224,0.5228,0.5227,0.5225,0.5226,0.5183,0.5222,0.5222,0.5222,0.5222,0.5222,0.5081,0.5092,0.5102,0.5117,0.5125,0.5135,0.5147,0.5153,0.5166,0.5182,0.5183,0.5201,0.5212,0.5233,0.524,0.5255,0.525,0.5256,0.5258,0.5259,0.526,0.5223,0.5258,0.5257,0.5257,0.5257,0.5257,0,0.5112,0.5119,0.5132,0.5147,0.5158,0.5155,0.5167,0.5177,0.5192,0.5203,0.5216,0.5234,0.525,0.5259,0.5274,0.5284,0.5284,0.5288,0.5287,0.5289,0.5263,0.5258,0.5288,0.5288,0.5288,0.5288,0.5288,0.5288,0.513,0.5149,0.5152,0.5175,0.5182,0.5199,0.5206,0.5215,0.5224,0.5245,0.5258,0.5263,0.5273,0.529,0.5304,0.5307,0.5312,0.5317,0.5319,0.5294,0.5291,0.5288,0.5283,0.5319,0.5319,0.5344,0.5344,0.5344]},{"header":{"parameterUnit":"m.s-1","parameterCategory":1,"la1":30.2991,"la2":30.254,"lo1":-89.0895,"lo2":-89.0444,"dy":0.0017,"dx":0.0017,"nx":28,"ny":28,"refTime":"2025-04-05T21:00:00:Z","depth":0,"parameterNumber":3,"parameterNumberName":"V-component_of_WINDS"},"data":[0,0,0,0,0,0,0,0,0,0,0,0,0,0,0,0,0,0,0,0,0,0,0,0,0,0,0,0,0,0,0,0,0,0,0,0,0,0,0,0,0,0,0,0,0,0,0,0,0,0,0,0,0,0,0,0,0,0,7.6541,7.6542,0,7.6657,7.6659,7.666,7.6641,7.6639,7.6637,7.6635,7.6754,7.6759,7.6764,0,0,0,0,0,0,0,0,0,0,0,0,0,7.6303,7.6307,7.6541,7.6542,7.6544,7.6657,7.6659,7.666,7.6641,7.6639,7.6637,7.6634,7.6752,7.6758,7.6764,0,0,0,0,0,0,0,0,0,0,0,0,0,7.6411,7.6309,7.654,7.6548,7.655,7.6657,7.6659,7.6661,7.6642,7.6639,7.6636,7.6633,7.675,7.6757,7.6765,7.6872,0,0,7.6788,7.6791,0,0,0,0,0,0,0,0,7.6405,7.642,7.6545,7.6548,7.655,7.6632,7.6618,7.6731,7.6643,7.6607,7.6635,7.6632,7.6715,7.6726,7.6754,7.6877,7.6882,7.6789,7.6793,7.6796,7.6799,0,0,0,0,0,0,0,7.6398,7.6415,7.6587,7.6547,7.655,7.6546,7.6558,7.664,7.6677,7.661,7.6609,7.6623,7.6716,7.6747,7.6757,7.6884,7.6788,7.6795,7.68,7.6803,7.7103,7.7106,0,0,0,0,0,0,7.6388,7.6409,7.6583,7.659,7.6469,7.6552,7.6566,7.6608,7.6676,7.6683,7.6625,7.6621,7.6735,7.6748,7.6761,7.6892,7.6796,7.6803,7.6808,7.71,7.7104,7.7107,0,0,0,0,0,0,7.6383,7.6404,7.6578,7.6499,7.6521,7.656,7.6607,7.6612,7.6643,7.6687,7.6694,7.665,7.6734,7.675,7.6845,7.6895,7.6807,7.6814,7.7096,7.7101,7.7106,7.7153,0,0,0,0,0,0,7.6376,7.6402,7.6442,7.65,7.6526,7.666,7.6611,7.6617,7.6656,7.6652,7.6712,7.6719,7.6733,7.6834,7.6852,7.6904,7.682,7.7091,7.7098,7.7104,7.7147,7.7159,7.717,0,0,0,0,0,7.6368,7.6451,7.6445,7.6466,7.6577,7.6663,7.6677,7.6691,7.666,7.6702,7.6731,7.6717,7.6887,7.6843,7.6864,7.6919,7.7088,7.7096,7.7103,7.7142,7.7157,7.7169,0,0,0,0,0,0,7.6397,7.6458,7.6452,7.6556,7.6605,7.666,7.6712,7.6706,7.6764,7.6758,7.6773,7.6786,7.6883,7.691,7.6861,7.7027,7.6983,7.6996,7.7006,7.702,7.7031,7.7022,7.6826,0,0,0,0,0,7.6415,7.648,7.653,7.6617,7.6642,7.6673,7.6711,7.6718,7.6768,7.6789,7.6824,7.6874,7.6939,7.6981,7.7043,7.7152,7.7165,7.72,7.7211,7.722,7.723,7.7292,7.7309,7.7133,7.7133,7.7133,0,0,7.6454,7.6496,7.6535,7.6624,7.6662,7.673,7.669,7.6762,7.6813,7.6799,7.6891,7.692,7.6976,7.7079,7.7126,7.7105,7.7282,7.723,7.7237,7.7242,7.7302,7.7318,7.7333,7.7138,7.7137,7.7137,0,0,7.6559,7.6597,7.6674,7.6714,7.6773,7.6794,7.6812,7.6869,7.6888,7.698,7.6973,7.7033,7.7143,7.7185,7.722,7.7344,7.7335,7.7364,7.7422,7.7482,7.7496,7.7508,7.7554,7.757,7.7374,7.7374,7.7374,0,7.66,7.67,7.6715,7.6789,7.6829,7.6821,7.69,7.6938,7.7014,7.7042,7.7018,7.7158,7.7195,7.7309,7.7339,7.7368,7.7391,7.7357,7.7493,7.7505,7.7517,7.7561,7.7578,7.7377,7.7377,7.7377,7.7376,0,7.6748,7.6819,7.6874,7.6949,7.6995,7.7071,7.7098,7.7143,7.7146,7.717,7.7265,7.7311,7.7382,7.741,7.7413,7.7525,7.751,7.7489,7.7445,7.7537,7.7578,7.7595,7.7382,7.7381,7.738,7.7379,0,0,7.6873,7.6957,7.6977,7.7012,7.7077,7.7132,7.7209,7.728,7.7319,7.7372,7.7438,7.7533,7.7515,7.7555,7.7564,7.7616,7.7714,7.759,7.7591,7.7612,7.7841,7.7856,7.7875,7.7708,7.7711,7.7714,7.7837,0,7.6985,7.712,7.7137,7.7257,7.7323,7.7318,7.7385,7.7433,7.7458,7.7518,7.7545,7.7613,7.7584,7.7608,7.766,7.7691,7.776,7.7682,7.777,7.7773,7.7756,7.7897,7.7913,7.8026,7.7853,7.7855,7.7857,0,7.7133,7.7192,7.732,7.7379,7.7407,7.7467,7.7534,7.7591,7.7647,7.7661,7.7708,7.771,7.779,7.7744,7.7855,7.7802,7.7839,7.786,7.7865,7.7874,7.7821,7.791,7.8062,7.808,7.7883,7.7881,7.7879,0,7.7213,7.7324,7.7415,7.7445,7.7515,7.7558,7.7589,7.7642,7.7684,7.7744,7.7772,7.7839,7.7876,7.7929,7.7951,7.7914,7.8062,7.8016,7.8077,7.8077,7.8108,7.8105,7.8269,7.8131,7.8131,7.813,7.813,0,7.7336,7.7414,7.7452,7.7508,7.7597,7.7615,7.7702,7.7732,7.7779,7.7842,7.7841,7.79,7.7924,7.7988,7.8005,7.8096,7.8112,7.8127,7.813,7.8127,7.8125,7.8151,7.8144,7.8135,7.8134,7.8133,7.8132,0,7.7439,7.7468,7.7567,7.7627,7.7643,7.7706,7.7757,7.7812,7.7837,7.7916,7.7936,7.7975,7.805,7.8076,7.8166,7.8178,7.8284,7.8281,7.8266,7.8266,7.8326,7.832,7.8512,7.8539,7.8383,7.8384,7.8385,0,7.7516,7.7577,7.7644,7.7686,7.7719,7.7787,7.783,7.7852,7.7898,7.7967,7.8014,7.8088,7.8148,7.8268,7.8305,7.8374,7.8373,7.8436,7.8383,7.8379,7.8375,7.8372,7.8379,7.8445,7.8447,7.8448,7.8449,0,7.765,7.7662,7.7725,7.7794,7.7847,7.7902,7.7956,7.799,7.802,7.8072,7.8148,7.8195,7.8289,7.8363,7.8435,7.8468,7.8464,7.8466,7.8484,7.8481,7.847,7.8478,7.8293,7.8461,7.846,7.8459,7.8458,7.8458,7.7743,7.7798,7.7854,7.7925,7.7968,7.8019,7.8074,7.8106,7.8171,7.8248,7.8257,7.834,7.8396,7.8493,7.8529,7.8595,7.8578,7.8603,7.861,7.8616,7.8621,7.8459,7.8608,7.8608,7.8607,7.8607,7.8607,0,7.7878,7.7915,7.798,7.8056,7.8112,7.8105,7.8164,7.8212,7.8285,7.8338,7.8398,7.8487,7.856,7.8603,7.8677,7.8721,7.8722,7.874,7.8737,7.8745,7.8631,7.8609,7.8738,7.8738,7.8738,7.8738,7.8738,7.8738,7.7955,7.8047,7.8066,7.818,7.8216,7.8297,7.8332,7.838,7.8422,7.8522,7.8582,7.8611,7.866,7.8738,7.8805,7.8816,7.8843,7.8863,7.8873,7.8766,7.8752,7.874,7.8719,7.8869,7.8869,7.8981,7.8982,7.8983]}]]